Flag for Poland Weather past 2 weeks in Zielona Góra, Poland

Now
59 °F

Fog.


Feels Like: 59 °F
Forecast: 53 / 78 °F
Wind: 2 mph from Southwest

Location: Goerlitz

Current Time: Aug 29, 2015 at 1:08:51 AM

Latest Report: Aug 29, 2015 at 12:00 AM


Visibility: 2 mi

Pressure: 30.19 "Hg

Humidity: 97%

Dew point: 59 °F

Location of Zielona GóraLocation

Historic Weather in Zielona Góra — Graph

°F

Zielona Góra temperature yesterday

Maximum temperature yesterday: 75 °F (at 1:00 AM)
Minimum temperature yesterday: 61 °F (at 11:00 PM)
Average temperature yesterday: 67 °F

Past Weeks' High & Low Weather Summary

 TemperatureHumidityPressure
High95 °F (Aug 14, 5:00 PM)99% (Aug 19, 9:00 AM)30.31 "Hg (Aug 19, 9:00 AM)
Low49 °F (Aug 21, 6:00 AM)18% (Aug 14, 5:00 PM)29.69 "Hg (Aug 14, 7:00 PM)
Average67 °F66%29.97 "Hg
* Reported Aug 14 1:00 AM — Midnight between Aug 28 and Aug 29, Zielona Góra, Weather by CustomWeather, © 2015

Note: Actual official high and low records may vary slightly from our data, if they occured in-between our weather recording intervals... More about our weather records

Advertising

Zielona Góra weather history for previous 24 hours

 ConditionsComfort  
Time TempWeatherWind HumidityBarometerVisibility
12:00 AM
Sat, Aug 29
59 °FFog.2 mph97%30.19 "Hg2 mi
11:00 PM
Fri, Aug 28
61 °FFog.1 mph97%30.17 "Hg5 mi
10:00 PM62 °FOvercast.1 mph96%30.16 "Hg5 mi
9:00 PM62 °FOvercast.1 mph95%30.14 "Hg7 mi
8:00 PM62 °FOvercast.1 mph95%30.12 "Hg8 mi
7:00 PM64 °FLight rain. Overcast.1 mph88%30.12 "Hg5 mi
6:00 PM64 °FOvercast.1 mph88%30.11 "Hg12 mi
5:00 PM63 °FOvercast.2 mph89%30.11 "Hg12 mi
4:00 PM63 °FRain. Overcast.2 mph92%30.09 "Hg8 mi
3:00 PM64 °FLow clouds.3 mph87%30.08 "Hg8 mi
2:00 PM64 °FLow clouds.5 mph91%30.07 "Hg4 mi
1:00 PM68 °FOvercast.5 mph85%30.04 "Hg25 mi
12:00 PM70 °FLight rain. Overcast.3 mph80%30.01 "Hg25 mi
11:00 AM71 °FLight rain. Overcast.7 mph71%29.98 "Hg19 mi
10:00 AM70 °FLight rain. Overcast.3 mph71%29.97 "Hg19 mi
9:00 AM69 °FOvercast.3 mph76%29.95 "Hg25 mi
8:00 AM66 °FLight rain. Overcast.2 mph82%29.94 "Hg28 mi
7:00 AM66 °FOvercast.1 mph76%29.94 "Hg16 mi
6:00 AM69 °FOvercast.3 mph65%29.91 "Hg14 mi
5:00 AM70 °FOvercast.5 mph71%29.87 "Hg14 mi
4:00 AM71 °FOvercast.6 mph69%29.84 "Hg17 mi
3:00 AM73 °FOvercast.8 mph61%29.82 "Hg28 mi
2:00 AM74 °FOvercast.8 mph56%29.82 "Hg28 mi
1:00 AM75 °FOvercast.9 mph51%29.82 "Hg28 mi
Weather by CustomWeather, © 2015

See weather overviewHow to use our weather pages